AO-07 1 07530U 74089B 19185.90587111 -.00000042 00000-0 18523-4 0 9999 2 07530 101.7445 153.4011 0011939 317.9106 106.0764 12.53638697042318 UO-11 1 14781U 84021B 19185.62265052 .00000029 00000-0 97084-5 0 9992 2 14781 097.6098 209.5873 0006931 266.9222 093.1199 14.83093436880126 LO-19 1 20442U 90005G 19185.79921283 -.00000018 00000-0 97086-5 0 9996 2 20442 098.6491 127.7728 0012913 100.7668 259.4970 14.32927933538622 HUBBLE 1 20580U 90037B 19185.95023219 .00000319 00000-0 84511-5 0 9996 2 20580 028.4694 104.4262 0002480 300.9227 136.8719 15.09240867403268 MET-2/21 1 22782U 93055A 19185.94232047 .00000042 00000-0 24507-4 0 9996 2 22782 082.5489 150.1787 0023352 130.2884 283.0435 13.83818556304841 AO-27 1 22825U 93061C 19185.87210582 -.00000016 00000-0 11813-4 0 9991 2 22825 098.9034 174.8786 0007646 317.9052 042.1542 14.30061621343995 IO-26 1 22826U 93061D 19185.93995359 -.00000017 00000-0 11279-4 0 9998 2 22826 098.8975 174.9374 0008008 305.0771 054.9659 14.30395250344227 FO-29 1 24278U 96046B 19185.89162498 -.00000017 00000-0 18665-4 0 9998 2 24278 098.5393 337.1060 0350061 197.8408 161.0183 13.53092601129747 NOAA-15 1 25338U 98030A 19185.90634115 .00000065 00000-0 46190-4 0 9999 2 25338 098.7457 207.1435 0010218 189.5503 170.5484 14.25918800099306 GO-32 1 25397U 98043D 19185.85439568 -.00000016 00000-0 12274-4 0 9990 2 25397 98.6892 125.8032 0001620 35.6933 324.4353 14.23667275 90173 ISS 1 25544U 98067A 19186.01131944 -.00001974 00000-0 -25538-4 0 9998 2 25544 51.6433 272.8383 0007372 107.4209 235.4069 15.50952657178010 NO-44 1 26931U 01043C 19185.79070394 -.00000039 00000-0 16712-4 0 9996 2 26931 067.0519 322.1365 0006906 277.9481 082.0837 14.30546097927209 SO-50 1 27607U 02058C 19185.88039727 -.00000043 00000-0 14900-4 0 9991 2 27607 064.5554 000.1015 0080828 253.4021 105.8194 14.75556185889294 CO-55 1 27844U 03031E 19185.90478907 .00000023 00000-0 29962-4 0 9997 2 27844 098.6832 193.8756 0009575 351.9013 008.2009 14.22183692830558 CO-57 1 27848U 03031J 19185.54967571 .00000015 00000-0 26586-4 0 9991 2 27848 98.6910 194.0293 0009745 4.4612 355.6651 14.21778139830391 RS-22 1 27939U 03042A 19185.80625003 .00000073 00000-0 21610-4 0 9991 2 27939 98.0432 321.3089 0013283 22.2252 337.9536 14.66788560842906 NOAA-18 1 28654U 05018A 19185.92914521 .00000070 00000-0 62819-4 0 9993 2 28654 099.0946 233.1415 0015205 129.8282 230.4230 14.12435470727717 CO-58 1 28895U 05043F 19185.84695576 .00000062 00000-0 20816-4 0 9997 2 28895 097.9614 328.0260 0015534 303.2289 056.7425 14.63672099729617 Falconsat-3 1 30776U 07006E 19185.87044927 .00001793 00000-0 51042-4 0 9997 2 30776 035.4359 347.4196 0003483 264.8701 095.1628 15.36233906683178 CO-65 1 32785U 08021C 19185.82111926 .00000129 00000-0 19505-4 0 9996 2 32785 097.5493 184.7748 0012345 203.2220 156.8442 14.88316010606014 AAUSAT2 1 32788U 08021F 19185.71603845 .00000642 00000-0 64048-4 0 9995 2 32788 097.4960 200.7387 0012876 140.2749 219.9417 14.94736748607215 DO-64 1 32789U 08021G 19185.75339147 .00001348 00000-0 94003-4 0 9999 2 32789 097.4631 234.9334 0013788 073.8317 286.4428 15.06977907609285 CO-66 1 32791U 08021J 19185.74534531 .00000218 00000-0 27427-4 0 9996 2 32791 097.5275 190.6928 0013335 177.4080 182.7210 14.90828844606423 RS-30 1 32953U 08025A 19185.74139863 .00000021 00000-0 75656-4 0 9998 2 32953 82.5017 134.7852 0020455 92.6263 267.7160 12.43090365504305 PRISM 1 33493U 09002B 19185.77479267 .00000200 00000-0 23110-4 0 9999 2 33493 098.1213 107.3403 0015991 127.0007 233.2679 14.96662355567544 NOAA-19 1 33591U 09005A 19185.91207748 .00000071 00000-0 63668-4 0 9998 2 33591 099.1800 177.4281 0013548 337.3080 022.7490 14.12362516535935 TISAT-1 1 36799U 10035E 19185.92176186 .00000219 00000-0 28215-4 0 9991 2 36799 098.1576 338.6135 0013035 038.4160 321.7983 14.91111385486987 JUGNU 1 37839U 11058B 19185.50090449 .00000292 00000-0 14044-4 0 9990 2 37839 19.9603 238.9130 0018883 140.5737 352.7992 14.12653143399492 SRMSAT 1 37841U 11058D 19185.64248903 .00000306 00000-0 23247-4 0 9999 2 37841 019.9727 295.1591 0011953 012.2795 116.1456 14.10634630398852 AO-71 1 37854U 11061E 19185.70064683 .00001139 00000-0 65762-4 0 9998 2 37854 101.7001 092.1747 0160989 018.3565 342.3367 15.06441962418953 HRBE 1 37855U 11061F 19185.68374183 .00001325 00000-0 73856-4 0 9995 2 37855 101.7130 089.4903 0173729 029.4387 331.6475 15.05446158418717 ALMASAT-1 1 38078U 12006B 19185.77295433 .00030094 42916-5 16521-3 0 9990 2 38078 69.4246 220.3165 0162776 237.4492 238.3233 15.63676100400001 HORYU-2 1 38340U 12025D 19185.91634297 .00000125 00000-0 26208-4 0 9993 2 38340 098.3278 224.9933 0012834 075.0377 285.2251 14.75724454373142 RS-40 1 38735U 12041C 19185.73121574 .00000014 00000-0 29076-4 0 9991 2 38735 82.4738 218.0846 0016580 196.2769 163.7809 12.42578984314540 BEESAT-3 1 39135U 13015F 19185.88921080 .00000633 00000-0 41211-4 0 9996 2 39135 064.8696 346.4851 0023278 319.2632 040.6752 15.17486340342317 BEESAT-2 1 39136U 13015G 19185.86639373 .00000675 00000-0 43969-4 0 9994 2 39136 064.8706 350.4295 0019968 299.2941 060.6189 15.16914852342238 ZACUBE-1 1 39417U 13066B 19185.58111604 .00000135 00000-0 23439-4 0 9994 2 39417 097.5617 198.1896 0058457 343.4728 016.4578 14.81119986303390 TRITON-1 1 39427U 13066M 19185.88422727 .00000162 00000-0 33522-4 0 9993 2 39427 097.6768 162.2620 0115219 113.3049 248.0332 14.67845873300524 GOMX-1 1 39430U 13066Q 19185.80497530 .00000078 00000-0 23251-4 0 9997 2 39430 97.7476 141.2967 0150588 202.9837 156.4580 14.59256724298956 LO-74 1 39440U 13066AA 19185.88724178 .00000146 00000-0 27227-4 0 9990 2 39440 097.6020 183.3676 0081185 033.3272 327.3012 14.75858121301164 AO-73 1 39444U 13066AE 19185.77546722 .00000169 00000-0 27215-4 0 9991 2 39444 097.5598 200.3344 0057389 336.5974 023.2629 14.81939499301728 SPROUT 1 39770U 14029E 19185.77757379 .00000194 00000-0 27532-4 0 9995 2 39770 97.8851 288.9651 0009993 40.0382 320.1544 14.87348605277227 DUCHIFAT-1 1 40021U 14033M 19185.78876461 .00000278 00000-0 34260-4 0 9995 2 40021 097.9239 110.4358 0013114 004.1698 355.9627 14.90635079273944 NANOSATCBR1 1 40024U 14033Q 19185.82404093 .00000172 00000-0 23842-4 0 9998 2 40024 97.9134 107.8534 0012476 7.7876 352.3533 14.89848717273843 EO-79 1 40025U 14033R 19185.82891855 .00000163 00000-0 23364-4 0 9994 2 40025 097.9058 105.4875 0012838 013.3586 346.7968 14.88947924273213 DTUSAT-2 1 40030U 14033W 19185.76215477 .00000150 00000-0 22162-4 0 9994 2 40030 097.8976 103.5545 0012213 009.6061 350.5387 14.88540276273131 EO-80 1 40032U 14033Y 19185.83555941 .00000180 00000-0 25416-4 0 9995 2 40032 97.8983 103.6287 0012176 10.0518 350.0940 14.88482913273645 ANTELSAT 1 40034U 14033AA 19185.58927597 .00000140 00000-0 28149-4 0 9991 2 40034 097.7590 052.0897 0059906 046.2067 314.4074 14.74107012270486 VELOX-1 1 40057U 14034E 19185.92839586 .00000189 00000-0 33984-4 0 9991 2 40057 098.2380 309.3679 0010776 174.6238 185.5094 14.77671087270163 DAURIA DX 1 1 40071U 14037C 19185.76678841 .00000052 00000-0 14213-4 0 9990 2 40071 98.4284 340.4726 0008587 166.1515 193.9936 14.81273796269632 UKUBE-1 1 40074U 14037F 19185.81179926 .00000161 00000-0 26487-4 0 9996 2 40074 98.4388 348.6866 0004870 143.2767 216.8791 14.84058776270044 HODOYOSHI-1 1 40299U 14070B 19185.81013825 .00000385 00000-0 19108-4 0 9997 2 40299 97.3492 265.2296 0012780 352.8370 122.5581 15.23375313258729 CHUBUSAT-1 1 40300U 14070C 19185.77764622 .00000473 00000-0 23567-4 0 9995 2 40300 97.3270 259.5521 0020518 3.0967 145.1567 15.22095294258460 QSAT-EOS 1 40301U 14070D 19185.83247689 .00001064 00000-0 43914-4 0 9997 2 40301 97.3272 262.7136 0025437 345.5947 81.9618 15.25945525258758 FIREBIRD FU3 1 40377U 15003B 19185.89271229 .00002422 00000-0 98244-4 0 9995 2 40377 099.1133 169.4444 0127823 036.9717 324.0236 15.18808839244378 FIREBIRD FU4 1 40378U 15003C 19185.87982765 .00002359 00000-0 95740-4 0 9995 2 40378 099.1135 169.5060 0128027 036.8956 324.0996 15.18815070244375 GRIFEX 1 40379U 15003D 19185.90591552 .00001647 00000-0 73444-4 0 9996 2 40379 099.1131 163.5043 0136282 055.3265 306.0718 15.15491702244032 NO-84 1 40654U 15025D 19184.38063688 .00009892 00000 0 13926-3 0 6568 2 40654 54.9889 105.7646 0137364 5.4505 354.8048 15.47167125114722 NO-83 1 40655U 15025E 19184.44189853 .00061900 11931-4 29237-3 0 7964 2 40655 54.9648 347.0615 0056495 75.3183 285.4086 15.81011600116059 DEORBITSAIL 1 40719U 15032E 19185.64703905 .00000279 00000-0 47063-4 0 9992 2 40719 097.9070 077.1472 0014848 254.0988 105.8586 14.76745863214612 NUDT-PHONESAT 1 40900U 15049B 19185.74161265 .00001432 00000-0 64120-4 0 9995 2 40900 97.4367 194.9176 0014337 124.5664 322.4052 15.22808927210100 XW-2A 1 40903U 15049E 19185.87307507 .00001509 00000-0 37457-4 0 9991 2 40903 97.3366 228.7274 0015435 87.0359 0.8071 15.41876025212745 XW-2C 1 40906U 15049H 19185.90817966 .00000191 00000-0 13486-4 0 9995 2 40906 097.4666 187.7165 0015996 138.5840 309.5766 15.15677927209459 XW-2D 1 40907U 15049J 19185.94469007 .00000357 00000-0 22061-4 0 9992 2 40907 097.4646 187.4311 0015148 135.2601 285.0005 15.15866734209478 LILACSAT-2 1 40908U 15049K 19185.91496356 .00000306 00000-0 20527-4 0 9996 2 40908 97.4777 186.2385 0016893 141.9533 278.2169 15.13805516209269 XW-2E 1 40909U 15049L 19185.72808212 .00000783 00000-0 42017-4 0 9991 2 40909 97.4587 190.0381 0014882 131.5658 315.3918 15.17789193209628 XW-2F 1 40910U 15049M 19185.95642942 .00000477 00000-0 27252-4 0 9998 2 40910 097.4616 189.4464 0015891 128.5050 286.9769 15.17300928209486 XW-2B 1 40911U 15049N 19185.91314510 .00000399 00000-0 24311-4 0 9998 2 40911 97.4674 188.0498 0014957 136.0039 290.0435 15.15797757209367 DCBB 1 40912U 15049P 19185.95805554 .00000675 00000-0 34823-4 0 9992 2 40912 097.4491 193.1001 0016450 113.0118 276.9095 15.19613844209784 TW-1C 1 40926U 15051B 19185.92937822 .00009132 00000-0 13287-3 0 9998 2 40926 097.1349 232.0832 0006598 322.4017 163.4361 15.55952627212683 TW-1A 1 40928U 15051D 19185.79389779 .00002587 00000-0 64961-4 0 9990 2 40928 97.1441 216.7412 0011900 23.6787 63.6686 15.40832462211653 IO-86 1 40931U 15052B 19185.69451060 .00000622 00000-0 -25381-5 0 9990 2 40931 6.0001 302.4834 0013409 19.9814 340.2178 14.76608614203631 LQSat 1 40958U 15057A 19185.73022093 .00000002 00000-0 80084-5 0 9991 2 40958 097.8980 254.4936 0018046 185.4535 174.6480 14.73082800201176 AO-85 1 40967U 15058D 19184.36240872 -.00000110 00000 0 72617-5 0 7347 2 40967 64.7776 113.8212 0198680 198.1900 161.2043 14.75956753109901 ATHENOXAT-1 1 41168U 15077C 19185.91758042 .00001495 00000-0 43552-4 0 9992 2 41168 014.9886 097.1582 0011574 318.5618 041.3825 15.13644042196447 ChubuSat-2 1 41338U 16012B 19185.92686726 .00000227 00000-0 10854-4 0 9992 2 41338 031.0042 041.5929 0014002 264.0516 095.8523 15.00155293185357 ChubuSat-3 1 41339U 16012C 19185.69486597 .00000204 00000-0 90505-5 0 9998 2 41339 31.0119 41.1403 0013779 268.8592 91.0465 15.00330797185315 Horyu-4 1 41340U 16012D 19185.86134171 .00000325 00000-0 17954-4 0 9997 2 41340 031.0062 031.3372 0014191 288.7414 071.1682 15.01270534185440 OUFTI-1 1 41458U 16025C 19185.80236268 .00000715 00000-0 40924-4 0 9991 2 41458 098.1019 273.4639 0165298 303.1992 055.3475 15.05825406174999 e-st@r-II 1 41459U 16025D 19185.82261732 .00000610 00000-0 35904-4 0 9994 2 41459 98.1041 273.1396 0166105 304.4485 54.1128 15.05471573174973 AAUSAT4 1 41460U 16025E 19185.77825974 .00001350 00000-0 71898-4 0 9998 2 41460 98.0971 274.3721 0156913 297.1213 61.4077 15.07354960175094 LO-87 1 41557U 16033B 19185.90015502 .00000942 00000-0 38035-4 0 9999 2 41557 097.4182 273.3058 0012410 236.6842 123.3210 15.27228064172562 NuSat2 1 41558U 16033C 19185.91446191 .00000974 00000-0 37084-4 0 9991 2 41558 097.4209 274.4184 0011441 237.1628 122.8511 15.29135250172616 Lapan A3 1 41603U 16040E 19185.78585451 -.00000020 00000-0 21992-5 0 9993 2 41603 97.3602 244.1028 0013174 350.2424 147.6110 15.19719377168184 Swayam 1 41607U 16040J 19185.89089693 .00001057 00000-0 47422-4 0 9991 2 41607 097.3646 247.6361 0012717 341.8506 018.2275 15.23317779168341 Pratham 1 41783U 16059A 19185.87706851 .00000041 00000-0 17180-4 0 9996 2 41783 098.0664 245.1010 0032888 335.3323 024.6305 14.62997749147912 AlSat 1N 1 41789U 16059G 19185.85193743 .00000019 00000-0 12699-4 0 9995 2 41789 098.0691 247.1057 0027449 325.2251 034.7154 14.64247010148013 ScatSat 1 41790U 16059H 19185.71918656 -.00000006 00000-0 95342-5 0 9994 2 41790 98.2080 230.4142 0004119 285.9422 74.1314 14.50821015146652 TY-1 1 41844U 16066D 19185.84756016 .00000573 00000-0 26323-4 0 9996 2 41844 97.4044 193.0260 0016365 127.4791 317.5062 15.24290367147155 Pegasus-1 1 41846U 16066F 19185.67881572 .00000276 00000-0 52391-4 0 9999 2 41846 98.7102 226.1342 0367395 190.6986 168.6231 14.37580368138851 CAS-2T 1 41847U 16066G 19185.68262698 .00000054 00000-0 18590-4 0 9990 2 41847 98.7044 226.6675 0365869 187.2003 172.3845 14.37991645139293 EO-88 1 42017U 17008BX 19185.89899214 .00001126 00000-0 47213-4 0 9995 2 42017 097.4024 252.8259 0007906 108.1465 252.0634 15.25549105132399 NJUST-1 1 42722U 98067MB 19185.84959580 .00320947 60357-4 37176-3 0 9996 2 42722 51.6252 181.4796 0004363 31.2888 40.9881 16.08295764121037 nSIGHT1 1 42726U 98067MF 19185.73479120 .00013996 00000-0 11002-3 0 9993 2 42726 51.6344 226.6218 0003574 247.1577 112.9044 15.71812585120349 Aoxiang-1 1 42735U 98067MQ 19177.55530794 .07215990 12478-4 53264-3 0 9996 2 42735 51.6164 219.6428 0005776 333.1578 33.8960 16.39815471120909 CAS-4B 1 42759U 17034B 19185.94210005 .00000145 00000-0 22408-4 0 9997 2 42759 043.0168 141.5257 0011878 348.1557 074.8007 15.09592275113291 CAS-4A 1 42761U 17034D 19185.77477487 -.00000084 00000-0 84593-5 0 9997 2 42761 43.0179 141.9716 0012322 348.7524 88.8675 15.09667632113268 UCLSat 1 42765U 17036A 19185.83393590 .00000896 00000-0 41284-4 0 9991 2 42765 097.3501 243.4990 0011913 164.7664 195.3934 15.22756663113519 NIUSat 1 42766U 17036B 19185.88453550 .00000716 00000-0 35164-4 0 9991 2 42766 097.3497 241.9324 0016353 158.0376 202.1564 15.21117942112691 LituanicaSAT 2 1 42768U 17036D 19185.87798343 .00001595 00000-0 70994-4 0 9990 2 42768 097.3535 243.1520 0015856 157.2633 202.9310 15.22818610112779 Aalto 1 1 42775U 17036L 19185.71130186 .00000583 00000-0 29009-4 0 9993 2 42775 097.3484 242.0912 0014648 157.9004 202.2866 15.21346417112645 URSA MAIOR 1 42776U 17036M 19185.80221034 .00000673 00000-0 32885-4 0 9993 2 42776 097.3494 242.3326 0014487 157.4250 202.7626 15.21479814112667 Max Valier Sat 1 42778U 17036P 19185.70178099 .00000698 00000-0 33490-4 0 9996 2 42778 097.3533 243.0154 0012993 160.6938 199.4794 15.22027425112676 Pegasus 1 42784U 17036V 19185.72951285 .00000825 00000-0 38544-4 0 9998 2 42784 097.3504 243.2127 0012451 166.1175 194.0406 15.22503890112706 NUDATSat 1 42787U 17036Y 19185.91436171 .00001034 00000-0 46272-4 0 9994 2 42787 097.3531 244.0952 0010445 163.3507 196.8075 15.23470377112619 SUCHAI 1 1 42788U 17036Z 19185.73226843 .00000990 00000-0 45081-4 0 9995 2 42788 097.3510 243.5247 0012051 165.0263 195.1333 15.22920982112790 SKCUBE 1 42789U 17036AA 19185.74908115 .00000918 00000-0 42178-4 0 9990 2 42789 097.3505 243.4811 0011906 165.0239 195.1352 15.22820389112715 VZLUSAT 1 1 42790U 17036AB 19185.70415170 .00001244 00000-0 55039-4 0 9995 2 42790 097.3520 243.8936 0011539 163.8532 196.3075 15.23469997112732 VENTA 1 1 42791U 17036AC 19185.92013006 .00000954 00000-0 43693-4 0 9992 2 42791 097.3503 243.7000 0011558 164.6384 195.5206 15.22833914112730 Robusta 1B 1 42792U 17036AD 19185.80961277 .00000987 00000-0 44891-4 0 9999 2 42792 97.3506 243.6917 0011462 165.1807 194.9768 15.22987169112749 D-SAT 1 42794U 17036AF 19185.84634798 .00000155 00000-0 18675-4 0 9998 2 42794 097.5382 229.8378 0128221 087.9057 273.6839 14.91101478110740 TechnoSat 1 42829U 17042E 19185.91998100 .00000207 00000-0 26313-4 0 9998 2 42829 097.5624 078.1261 0014568 012.3449 347.8124 14.90976997107358 TOMSK-TPU 120 1 42910U 98067MZ 19185.91403810 .00049695 00000-0 20415-3 0 9994 2 42910 051.6317 204.6741 0001205 313.4612 119.5525 15.85473885107609 TANYUSHA 1 1 42911U 98067NA 19185.88046795 .00226050 33436-4 36771-3 0 9993 2 42911 051.6184 191.3570 0003680 023.1069 044.0501 16.02879913107758 TANYUSHA 2 1 42912U 98067NB 19185.59179690 .00090536 14283-4 26746-3 0 9991 2 42912 51.6324 200.2390 0003279 8.5191 87.7155 15.92589507107633 TNS 0-2 1 42914U 98067ND 19185.86909906 .00052823 00000-0 20905-3 0 9990 2 42914 051.6314 205.3896 0001648 327.1843 032.9059 15.86220292107566 QIKCOM-1 1 42983U 98067NF 19185.73017737 .00002181 00000-0 34020-4 0 9990 2 42983 51.6395 259.7099 0003952 179.1725 180.9275 15.58919305 95843 AO-91 1 43017U 17073E 19185.77307467 .00000395 00000-0 35755-4 0 9994 2 43017 97.7230 106.5048 0259630 105.9615 257.0365 14.78554568 87636 EcAMSat 1 43019U 98067NG 19185.61040620 .00003908 00000-0 51041-4 0 9995 2 43019 51.6401 255.2028 0004464 161.2793 198.8366 15.61363974178212 PICSAT 1 43132U 18004X 19185.86007409 .00000983 00000-0 44088-4 0 9992 2 43132 097.4877 253.6462 0009437 188.1162 171.9924 15.23586628081968 AO-92 1 43137U 18004AC 19185.72143211 .00000740 00000-0 34028-4 0 9998 2 43137 097.4868 253.4881 0008933 190.0969 170.0090 15.23474155081946 TianYi 2 1 43155U 18008A 19185.84349166 .00000119 00000-0 10906-4 0 9991 2 43155 97.4862 258.0442 0016012 269.7519 225.9940 15.11146280 80266 Zhou Enlai 1 43156U 18008B 19185.76592569 .00000550 00000-0 37049-4 0 9996 2 43156 97.4908 257.8619 0013185 267.6490 241.8291 15.10651778 80228 TianYi 6 1 43158U 18008D 19185.81343921 .00000839 00000-0 55095-4 0 9991 2 43158 97.4865 257.3775 0012446 265.1901 233.7256 15.10248465 80191 S-Net G 1 43186U 18014G 19185.80495900 .00000025 00000-0 73044-5 0 9995 2 43186 97.7083 94.0254 0010109 317.2871 42.7564 14.96646210 77542 S-Net H 1 43187U 18014H 19185.73792761 .00000008 00000-0 57901-5 0 9998 2 43187 097.7082 093.9474 0010120 317.4507 042.5929 14.96646320077539 S-Net J 1 43188U 18014J 19185.80458241 .00000010 00000-0 59384-5 0 9999 2 43188 097.7084 094.0303 0010120 317.3085 042.7349 14.96645975077549 S-Net K 1 43189U 18014K 19185.80491546 .00000021 00000-0 68977-5 0 9995 2 43189 097.7082 094.0107 0010112 317.2137 042.8297 14.96645742076092 FMN 1 1 43192U 18015A 19185.94192784 .00001308 00000-0 56347-4 0 9993 2 43192 097.4018 313.4824 0014847 233.6903 126.2961 15.24291285078792 Shaonian Xing 1 43199U 18015H 19185.94745101 .00000954 00000-0 41256-4 0 9996 2 43199 097.3796 312.5794 0015746 245.8930 114.0659 15.24798661078846 1KUNS-PF 1 43466U 98067NP 19185.60856416 .00012910 00000-0 12593-3 0 9999 2 43466 51.6363 253.6132 0000147 347.9070 12.1922 15.66598922 65419 UBAKUSAT 1 43467U 98067NQ 19185.71703449 .00007864 00000-0 90449-4 0 9998 2 43467 51.6363 257.3389 0002152 122.5018 237.6185 15.63064345 65387 Irazu 1 43468U 98067NR 19185.63198289 .00017555 00000-0 14991-3 0 9995 2 43468 051.6348 249.9932 0000797 337.9594 022.1369 15.69598219165454 EnduroSat One 1 43551U 98067NZ 19185.67214768 .00010130 00000-0 11416-3 0 9994 2 43551 051.6369 260.0388 0005042 208.4927 151.5793 15.63206915055571 EQUISat 1 43552U 98067PA 19185.72898378 .00007911 00000-0 94956-4 0 9990 2 43552 051.6381 261.1894 0005507 205.3141 154.7584 15.61932314055525 UiTMSat 1 1 43589U 98067PD 19185.66703896 .00008602 00000-0 10221-3 0 9993 2 43589 051.6355 262.2223 0004804 215.3876 144.6800 15.62061857051249 Maya 1 1 43590U 98067PE 19185.47001807 .00008974 00000-0 10631-3 0 9994 2 43590 51.6359 263.1606 0004961 214.6656 145.4015 15.62077703 51145 Bhutan 1 1 43591U 98067PF 19185.58805651 .00008517 00000-0 10097-3 0 9995 2 43591 051.6368 262.4703 0005087 216.2105 143.8545 15.62137577051161 SiriusSat 1 1 43595U 98067PG 19185.71044231 .00008715 00000-0 10644-3 0 9991 2 43595 051.6360 263.2655 0003013 167.0875 193.0196 15.61321279050347 SiriusSat 2 1 43596U 98067PH 19185.74245497 .00008518 00000-0 10480-3 0 9991 2 43596 051.6370 263.5148 0003561 168.2755 191.8322 15.61163559050349 Tanusha-3 1 43597U 98067PJ 19185.66025888 .00010101 00000-0 11589-3 0 9995 2 43597 051.6353 262.1543 0002853 187.5721 172.5231 15.62747899050357 SurfSat 1 43614U 18070B 19185.54314269 .00001829 00000-0 49757-4 0 9998 2 43614 93.0221 10.2077 0013455 240.3356 119.6558 15.37565544 44845 CP-7 DAVE 1 43615U 18070C 19185.67985066 .00001642 00000-0 44792-4 0 9999 2 43615 093.0223 010.2653 0013649 238.7997 121.1919 15.37484180044862 ELFIN-B 1 43616U 18070D 19185.74628939 .00002329 00000-0 62153-4 0 9995 2 43616 093.0189 010.2051 0014394 242.8016 117.1771 15.38112530044883 ELFIN-A 1 43617U 18070E 19185.80478138 .00002856 00000-0 76103-4 0 9992 2 43617 093.0243 010.4567 0013574 238.6879 121.3046 15.38159601044891 STARS-Me Mother 1 43640U 98067PQ 19185.64768231 .00005644 00000-0 78389-4 0 9996 2 43640 51.6376 267.3724 0005232 153.7442 206.3817 15.58693373 42212 CubeBel 1 1 43666U 18083E 19185.84383948 .00000700 00000-0 38157-4 0 9991 2 43666 97.5191 210.2128 0016293 128.1369 339.1951 15.17597320 37737 Changshagaoxin 1 43669U 18083H 19185.88030925 .00000558 00000-0 31783-4 0 9991 2 43669 097.5053 209.5066 0012466 120.4149 239.8318 15.16800591037681 Ten-Koh 1 43677U 18084G 19185.87220542 .00000143 00000-0 20560-4 0 9997 2 43677 097.8534 299.4982 0015059 225.1097 134.8898 14.90172438037026 PO-101 1 43678U 18084H 19185.84040959 .00000121 00000-0 17719-4 0 9995 2 43678 97.8527 300.0175 0008607 248.3390 111.6878 14.91559456 37050 IRVINE 01 1 43693U 18088D 19185.79532450 .00001914 00000-0 83085-4 0 9992 2 43693 085.0361 307.4792 0020302 129.7935 230.5099 15.21419322035810 QO-100 1 43700U 18090A 19185.93223740 .00000138 00000-0 00000-0 0 9998 2 43700 000.0272 084.3371 0000848 011.0775 188.5925 01.00271073002218 Reaktor Hello World 1 43743U 18096AA 19185.89705957 .00000789 00000-0 32882-4 0 9990 2 43743 97.4598 255.8770 0016692 279.8203 198.5038 15.26627664 33201 MinXSS-2 1 43758U 18099A 19185.87948992 .00000695 00000-0 68105-4 0 9998 2 43758 097.7446 257.7412 0014042 273.3619 086.5995 14.95414527031857 AO-95 1 43770U 18099N 19185.70174482 .00000031 00000-0 81486-5 0 9991 2 43770 097.7449 257.3665 0013082 281.9647 078.0106 14.94772203031812 RANGE-B 1 43772U 18099Q 19185.89041812 .00000544 00000-0 55148-4 0 9997 2 43772 097.7502 257.7172 0012602 266.5935 093.3844 14.94879604031831 RANGE-A 1 43773U 18099R 19185.76104467 .00000215 00000-0 25067-4 0 9992 2 43773 097.7396 257.3058 0012001 267.5082 092.4764 14.94807518031813 MOVE-II 1 43780U 18099Y 19185.73259896 .00000440 00000-0 45398-4 0 9993 2 43780 097.7435 257.4387 0012070 278.9569 081.0286 14.95062526031808 SNUSat 2 1 43782U 18099AA 19185.72731349 .00000085 00000-0 13077-4 0 9996 2 43782 097.7441 257.4753 0011352 267.1353 092.8568 14.95054088031815 SnugLite 1 43784U 18099AC 19185.78343678 -.00000164 00000-0 -96130-5 0 9990 2 43784 097.7408 257.4598 0013674 276.1819 083.7844 14.95136002031838 ITASat 1 1 43786U 18099AE 19185.78145601 -.00000243 00000-0 -16841-4 0 9996 2 43786 097.7462 257.6098 0013769 275.0779 084.8870 14.95141340031837 EAGLET 1 1 43790U 18099AJ 19185.79429975 .00000053 00000-0 99923-5 0 9991 2 43790 097.7450 257.7217 0012067 280.4874 079.4987 14.95514962031539 ESEO 1 43792U 18099AL 19185.79194339 -.00000093 00000-0 -31244-5 0 9994 2 43792 097.7430 257.6756 0011913 277.2753 082.7114 14.95507302031590 CSIM 1 43793U 18099AM 19185.91036967 -.00000055 00000-0 29978-6 0 9990 2 43793 097.7396 257.6959 0011532 274.1911 085.7992 14.95701535031586 Astrocast 0.1 1 43798U 18099AS 19185.76115273 .00000248 00000-0 27438-4 0 9996 2 43798 097.7442 257.7277 0010849 258.5212 101.4791 14.95737092031824 JO-97 1 43803U 18099AX 19185.89865707 .00000187 00000-0 22225-4 0 9992 2 43803 097.7422 257.6439 0013604 275.6080 084.3589 14.95275114031841 Suomi 100 1 43804U 18099AY 19185.89818339 .00000172 00000-0 20851-4 0 9999 2 43804 097.7420 257.6416 0013679 275.6975 084.2686 14.95274813031853 Al Farabi 2 1 43805U 18099AZ 19185.89296923 .00000495 00000-0 50134-4 0 9994 2 43805 097.7423 257.6515 0013663 275.6899 084.2763 14.95332342031853 PWSat 2 1 43814U 18099BJ 19185.90554314 .00011589 00000-0 93771-3 0 9996 2 43814 097.7834 258.7919 0005513 229.4864 130.5858 14.99909902031286 CHOMPTT 1 43855U 18104G 19185.67004298 .00000792 00000-0 32479-4 0 9996 2 43855 085.0387 045.8788 0015265 254.9305 105.0252 15.22391714030457 ISAT 1 43879U 18111D 19185.77863031 .00000059 00000-0 10446-4 0 9995 2 43879 097.7177 093.5536 0012737 337.8453 022.2216 14.95996251028348 UWE-4 1 43880U 18111E 19185.74775639 .00000436 00000-0 43745-4 0 9997 2 43880 097.7180 093.6173 0011694 338.3387 021.7338 14.96233097028347 Sparrow 1 43881U 18111F 19185.74201192 .00000259 00000-0 28088-4 0 9992 2 43881 097.7183 093.6343 0011874 336.7652 023.3031 14.96280360028340 Lume 1 1 43908U 18111AJ 19185.81742188 .00000767 00000-0 34083-4 0 9991 2 43908 097.2892 090.6301 0020131 297.1650 062.7535 15.24350394028902 FO-98 1 43933U 19003B 19185.93308220 .00000508 00000-0 25372-4 0 9992 2 43933 097.2807 242.9734 0019107 033.1908 091.0446 15.21642925025525 FO-99 1 43937U 19003F 19185.85253781 .00000871 00000-0 39033-4 0 9990 2 43937 97.2760 243.2474 0025172 19.0792 69.9458 15.23589313 25547 Delphini 1 1 44030U 98067PW 19185.65516993 .00006870 00000-0 10086-3 0 9998 2 44030 51.6384 271.1757 0004284 204.9154 155.1632 15.56765574 24036 MYSat 1 1 44045U 18092F 19185.73653968 .00001831 00000-0 64236-4 0 9996 2 44045 051.6432 293.1998 0012958 141.9527 218.2374 15.34981910021703 AstroCast 0.2 1 44083U 19018F 19185.72333275 .00000344 00000-0 18470-4 0 9999 2 44083 97.4677 245.5819 0012793 317.8315 42.1936 15.21385383 14352 AISTechSat 3 1 44103U 19018AB 19185.84464861 .00000597 00000-0 28667-4 0 9990 2 44103 097.4555 245.7093 0012860 337.4721 022.5949 15.22639079014384 AISat 1 1 44104U 19018AC 19185.75332568 .00000649 00000-0 23628-4 0 9999 2 44104 97.5087 247.3692 0059332 11.5347 348.7236 15.30481772 14463 OBJECT A 1 44339U 19036A 19185.05008421 .00001899 00000-0 40471-3 0 9992 2 44339 024.0007 149.6861 0010719 291.2152 068.7197 14.52653536001260 OBJECT B 1 44340U 19036B 19183.74426468 .00000266 00000-0 13073-4 0 9999 2 44340 023.9996 157.8827 0011398 276.3236 083.6033 14.52757897001070 OBJECT C 1 44341U 19036C 19185.94187043 .00000438 00000-0 54283-4 0 9996 2 44341 023.9973 144.0462 0011540 300.7389 059.1983 14.52836356001394 OBJECT D 1 44342U 19036D 19185.25408017 .00000234 00000-0 52516-5 0 9990 2 44342 023.9971 148.3529 0012244 290.4905 069.4272 14.53013512001291 OBJECT E 1 44343U 19036E 19185.94053254 .00000293 00000-0 19277-4 0 9997 2 44343 024.0001 144.0342 0012141 300.1561 059.7761 14.53037407001392 OBJECT H 1 44346U 19036H 19185.93177943 .00005578 00000-0 85344-4 0 9990 2 44346 028.5237 138.3629 0392688 207.6220 150.3003 14.95866231001443 OBJECT J 1 44347U 19036J 19185.92891243 .00017424 00000-0 28163-3 0 9994 2 44347 028.5293 138.3393 0389533 207.5335 150.4079 14.96412936001449 OBJECT K 1 44348U 19036K 19185.92811689 .00004523 00000-0 66935-4 0 9997 2 44348 028.5186 138.3273 0391488 207.2255 150.7301 14.96421766001440 /EX
